[[{"header":{"parameterUnit":"m.s-1","parameterCategory":1,"la1":30.2991,"la2":30.254,"lo1":-89.0895,"lo2":-89.0444,"dx":0.0017,"dy":0.0017,"nx":28,"ny":28,"refTime":"2022-11-18T15:00:00:Z","depth":0,"parameterNumber":2,"parameterNumberName":"U-component_of_WINDS"},"data":[0,0,0,0,0,0,0,0,0,0,0,0,0,0,0,0,0,0,0,0,0,0,0,0,0,0,0,0,0,0,0,0,0,0,0,0,0,0,0,0,0,0,0,0,0,0,0,0,0,0,0,0,0,0,0,0,0,0,-2.0329,-2.033,0,-2.0463,-2.0465,-2.0466,-2.0396,-2.0392,-2.0388,-2.0385,-2.0529,-2.0536,-2.0543,0,0,0,0,0,0,0,0,0,0,0,0,0,-2.0017,-2.0023,-2.0329,-2.0331,-2.0332,-2.0463,-2.0465,-2.0467,-2.0396,-2.0392,-2.0387,-2.0383,-2.0527,-2.0535,-2.0544,0,0,0,0,0,0,0,0,0,0,0,0,0,-2.0153,-2.0025,-2.0329,-2.0313,-2.0313,-2.0463,-2.0465,-2.0467,-2.0397,-2.0392,-2.0386,-2.0381,-2.0524,-2.0535,-2.0545,-2.0721,0,0,-2.0578,-2.0583,0,0,0,0,0,0,0,0,-2.0145,-2.0164,-2.0313,-2.0314,-2.0314,-2.0407,-2.0408,-2.0553,-2.0399,-2.0365,-2.0385,-2.0379,-2.0493,-2.0506,-2.0544,-2.0728,-2.0734,-2.0579,-2.0586,-2.0591,-2.0594,0,0,0,0,0,0,0,-2.0136,-2.0158,-2.0382,-2.0316,-2.0316,-2.0301,-2.0314,-2.0435,-2.0459,-2.0368,-2.0363,-2.0379,-2.0493,-2.0534,-2.0547,-2.0736,-2.0579,-2.0589,-2.0595,-2.06,-2.1074,-2.108,0,0,0,0,0,0,-2.0126,-2.0151,-2.0378,-2.0386,-2.0214,-2.0311,-2.0326,-2.0383,-2.0457,-2.0463,-2.0384,-2.0376,-2.0518,-2.0534,-2.0552,-2.0765,-2.059,-2.0601,-2.0607,-2.1068,-2.1075,-2.1082,0,0,0,0,0,0,-2.012,-2.0147,-2.0373,-2.0267,-2.0295,-2.0322,-2.0387,-2.0388,-2.0429,-2.0469,-2.0473,-2.0421,-2.0514,-2.0536,-2.068,-2.0769,-2.0605,-2.0615,-2.1061,-2.107,-2.1079,-2.1192,0,0,0,0,0,0,-2.0111,-2.0145,-2.0211,-2.0269,-2.0301,-2.0497,-2.0392,-2.0395,-2.0447,-2.0438,-2.0505,-2.0511,-2.0512,-2.0664,-2.069,-2.0781,-2.0624,-2.1053,-2.1065,-2.1076,-2.1181,-2.1204,-2.1224,0,0,0,0,0,-2.01,-2.0238,-2.0215,-2.0243,-2.0383,-2.0502,-2.052,-2.0516,-2.0455,-2.0522,-2.0548,-2.0509,-2.0754,-2.0679,-2.0708,-2.0804,-2.1048,-2.1062,-2.1075,-2.1171,-2.12,-2.1224,0,0,0,0,0,0,-2.0192,-2.0246,-2.022,-2.038,-2.0437,-2.049,-2.0575,-2.0546,-2.0623,-2.0611,-2.0604,-2.062,-2.077,-2.08,-2.0716,-2.0979,-2.0892,-2.0912,-2.0955,-2.0982,-2.1003,-2.0995,-2.0633,0,0,0,0,0,-2.0231,-2.0321,-2.0363,-2.0501,-2.0531,-2.0548,-2.06,-2.0591,-2.0651,-2.0675,-2.0711,-2.0772,-2.0863,-2.0923,-2.1009,-2.1183,-2.1199,-2.1263,-2.1285,-2.1302,-2.1322,-2.142,-2.145,-2.1127,-2.1127,-2.1127,0,0,-2.0312,-2.0352,-2.041,-2.0521,-2.0564,-2.066,-2.0569,-2.0674,-2.0747,-2.0692,-2.083,-2.0858,-2.0926,-2.1087,-2.1159,-2.1117,-2.1414,-2.132,-2.1334,-2.1344,-2.1437,-2.1468,-2.1495,-2.1137,-2.1135,-2.1133,0,0,-2.0511,-2.0549,-2.0669,-2.0713,-2.0779,-2.0789,-2.0818,-2.0876,-2.0892,-2.103,-2.0991,-2.1078,-2.1234,-2.1285,-2.1331,-2.1548,-2.1517,-2.1576,-2.1692,-2.1787,-2.1813,-2.1836,-2.1918,-2.1947,-2.1594,-2.1594,-2.1595,0,-2.0605,-2.0747,-2.0735,-2.0844,-2.0895,-2.0847,-2.0971,-2.1015,-2.1106,-2.1144,-2.1093,-2.1289,-2.1331,-2.1504,-2.1558,-2.1595,-2.1631,-2.1571,-2.181,-2.1832,-2.1853,-2.1932,-2.1962,-2.1601,-2.1601,-2.16,-2.1599,0,-2.0861,-2.096,-2.105,-2.1138,-2.1198,-2.1314,-2.1322,-2.1385,-2.1371,-2.1388,-2.153,-2.1578,-2.1674,-2.1714,-2.1701,-2.1887,-2.1859,-2.1809,-2.1722,-2.1892,-2.1965,-2.1995,-2.1612,-2.1609,-2.1607,-2.1605,0,0,-2.1125,-2.1204,-2.1237,-2.1278,-2.1346,-2.1424,-2.1538,-2.1629,-2.1686,-2.1749,-2.1848,-2.198,-2.1936,-2.1988,-2.1981,-2.2064,-2.2239,-2.2005,-2.2007,-2.2051,-2.245,-2.2491,-2.2525,-2.2216,-2.2221,-2.2226,-2.2446,0,-2.1332,-2.153,-2.1523,-2.171,-2.1803,-2.1758,-2.1858,-2.1912,-2.1931,-2.2014,-2.2035,-2.2131,-2.2062,-2.2094,-2.2173,-2.22,-2.232,-2.2184,-2.2312,-2.2317,-2.2301,-2.2563,-2.2606,-2.2812,-2.2475,-2.2479,-2.2483,0,-2.16,-2.1672,-2.1868,-2.1924,-2.1963,-2.2053,-2.2138,-2.2217,-2.2278,-2.2286,-2.2344,-2.2324,-2.2443,-2.2348,-2.2514,-2.2422,-2.2473,-2.2494,-2.2502,-2.2518,-2.2414,-2.2591,-2.2877,-2.291,-2.2527,-2.2524,-2.252,0,-2.1779,-2.1924,-2.2061,-2.2096,-2.2164,-2.2229,-2.226,-2.2316,-2.2372,-2.2446,-2.2483,-2.257,-2.262,-2.2689,-2.2694,-2.2624,-2.2863,-2.2768,-2.2877,-2.2877,-2.2933,-2.2931,-2.3236,-2.2958,-2.2957,-2.2957,-2.2956,0,-2.2014,-2.2137,-2.2143,-2.2227,-2.2364,-2.2355,-2.2491,-2.2516,-2.2566,-2.2657,-2.2622,-2.2709,-2.2707,-2.2796,-2.28,-2.294,-2.2961,-2.2973,-2.2974,-2.2979,-2.2979,-2.3017,-2.3005,-2.2965,-2.2963,-2.2962,-2.296,0,-2.2239,-2.2247,-2.2394,-2.2445,-2.2461,-2.256,-2.2605,-2.2687,-2.2701,-2.2817,-2.2843,-2.2867,-2.2969,-2.2979,-2.3099,-2.3102,-2.3272,-2.3254,-2.3251,-2.325,-2.336,-2.3351,-2.3705,-2.3753,-2.3439,-2.3441,-2.3444,0,-2.2391,-2.2484,-2.2545,-2.2602,-2.2637,-2.273,-2.2787,-2.2781,-2.2842,-2.2919,-2.2993,-2.3091,-2.3171,-2.3337,-2.3367,-2.3459,-2.3447,-2.3564,-2.3461,-2.3464,-2.3455,-2.3451,-2.3462,-2.3586,-2.359,-2.3592,-2.3595,0,-2.2661,-2.266,-2.2742,-2.2827,-2.2896,-2.2963,-2.3025,-2.3074,-2.3076,-2.3147,-2.3251,-2.3312,-2.3433,-2.3534,-2.3624,-2.3659,-2.363,-2.3626,-2.3657,-2.3666,-2.3663,-2.3671,-2.3311,-2.3619,-2.3617,-2.3615,-2.3614,-2.3613,-2.2857,-2.2939,-2.2996,-2.3089,-2.3135,-2.3194,-2.3274,-2.3298,-2.3383,-2.3481,-2.3472,-2.3588,-2.3648,-2.3766,-2.3808,-2.39,-2.3861,-2.3905,-2.3917,-2.3929,-2.3943,-2.3643,-2.3916,-2.3915,-2.3914,-2.3914,-2.3913,0,-2.313,-2.3163,-2.3249,-2.3337,-2.3412,-2.3372,-2.344,-2.3506,-2.3608,-2.3665,-2.3743,-2.3864,-2.3961,-2.3997,-2.4092,-2.416,-2.4149,-2.4185,-2.4183,-2.4193,-2.3969,-2.3936,-2.4193,-2.4193,-2.4193,-2.4193,-2.4193,-2.4193,-2.3281,-2.3419,-2.3425,-2.3586,-2.3619,-2.3731,-2.3773,-2.3829,-2.3875,-2.4011,-2.409,-2.4112,-2.4162,-2.4261,-2.4349,-2.4357,-2.4396,-2.444,-2.4444,-2.4236,-2.4208,-2.4181,-2.4149,-2.4447,-2.4448,-2.4659,-2.4661,-2.4663]},{"header":{"parameterUnit":"m.s-1","parameterCategory":1,"la1":30.2991,"la2":30.254,"lo1":-89.0895,"lo2":-89.0444,"dx":0.0017,"dy":0.0017,"nx":28,"ny":28,"refTime":"2022-11-18T15:00:00:Z","depth":0,"parameterNumber":3,"parameterNumberName":"V-component_of_WINDS"},"data":[0,0,0,0,0,0,0,0,0,0,0,0,0,0,0,0,0,0,0,0,0,0,0,0,0,0,0,0,0,0,0,0,0,0,0,0,0,0,0,0,0,0,0,0,0,0,0,0,0,0,0,0,0,0,0,0,0,0,-5.8675,-5.8675,0,-5.8723,-5.8724,-5.8724,-5.8602,-5.8598,-5.8595,-5.8591,-5.8636,-5.8641,-5.8645,0,0,0,0,0,0,0,0,0,0,0,0,0,-5.8471,-5.8476,-5.8675,-5.8675,-5.8676,-5.8723,-5.8724,-5.8724,-5.8603,-5.8598,-5.8594,-5.8589,-5.8634,-5.864,-5.8646,0,0,0,0,0,0,0,0,0,0,0,0,0,-5.8544,-5.8477,-5.8675,-5.8621,-5.8617,-5.8723,-5.8724,-5.8725,-5.8604,-5.8598,-5.8592,-5.8587,-5.8632,-5.8639,-5.8646,-5.8805,0,0,-5.8668,-5.8671,0,0,0,0,0,0,0,0,-5.854,-5.8551,-5.8628,-5.8625,-5.862,-5.8651,-5.8668,-5.8752,-5.8605,-5.8609,-5.8591,-5.8584,-5.8645,-5.8651,-5.8672,-5.8807,-5.8809,-5.8669,-5.8673,-5.8676,-5.8678,0,0,0,0,0,0,0,-5.8535,-5.8548,-5.8694,-5.863,-5.8625,-5.8593,-5.8597,-5.8684,-5.8658,-5.8608,-5.8599,-5.8607,-5.8642,-5.8666,-5.8673,-5.881,-5.8669,-5.8675,-5.8679,-5.8682,-5.9076,-5.9082,0,0,0,0,0,0,-5.8537,-5.8545,-5.8692,-5.8695,-5.8565,-5.8601,-5.8606,-5.8647,-5.8657,-5.8653,-5.8612,-5.8601,-5.8657,-5.8664,-5.8674,-5.886,-5.8676,-5.8683,-5.8687,-5.907,-5.9078,-5.9085,0,0,0,0,0,0,-5.8534,-5.8552,-5.869,-5.8618,-5.8633,-5.8611,-5.8658,-5.8651,-5.8675,-5.866,-5.8654,-5.8641,-5.8652,-5.8664,-5.8774,-5.886,-5.8686,-5.8693,-5.9063,-5.9073,-5.9081,-5.9235,0,0,0,0,0,0,-5.8528,-5.8551,-5.8613,-5.862,-5.8637,-5.8792,-5.8663,-5.8656,-5.8688,-5.8674,-5.8686,-5.8683,-5.8649,-5.8764,-5.8781,-5.8867,-5.8698,-5.9055,-5.9067,-5.9078,-5.9222,-5.9249,-5.9271,0,0,0,0,0,-5.8521,-5.8653,-5.8617,-5.8635,-5.8714,-5.8797,-5.8806,-5.8766,-5.8696,-5.8756,-5.8747,-5.8682,-5.8848,-5.8776,-5.8794,-5.8884,-5.905,-5.9064,-5.9077,-5.9211,-5.9244,-5.9271,0,0,0,0,0,0,-5.8655,-5.8653,-5.8613,-5.8751,-5.8775,-5.8776,-5.8852,-5.8801,-5.8845,-5.883,-5.8776,-5.878,-5.89,-5.8902,-5.8822,-5.9037,-5.8936,-5.8955,-5.9032,-5.9062,-5.9086,-5.9084,-5.8704,0,0,0,0,0,-5.8701,-5.877,-5.8764,-5.8886,-5.8901,-5.8875,-5.8909,-5.8876,-5.8898,-5.8907,-5.8905,-5.8928,-5.8985,-5.9023,-5.9075,-5.9222,-5.9222,-5.9292,-5.9316,-5.9336,-5.9353,-5.9431,-5.9462,-5.913,-5.913,-5.913,0,0,-5.8796,-5.8803,-5.885,-5.8913,-5.8928,-5.8999,-5.8884,-5.8964,-5.9016,-5.8918,-5.9023,-5.9023,-5.9044,-5.9173,-5.923,-5.9179,-5.9445,-5.9354,-5.937,-5.9376,-5.9448,-5.948,-5.9508,-5.914,-5.9138,-5.9137,0,0,-5.9005,-5.9018,-5.9122,-5.9139,-5.9164,-5.9145,-5.917,-5.9179,-5.9176,-5.928,-5.9208,-5.9268,-5.9367,-5.9385,-5.9408,-5.9623,-5.9566,-5.9641,-5.9769,-5.9846,-5.9872,-5.9895,-5.9972,-6.0,-5.9658,-5.9658,-5.9658,0,-5.912,-5.9226,-5.9181,-5.9267,-5.9296,-5.9213,-5.9317,-5.9335,-5.9374,-5.9396,-5.9338,-5.9461,-5.947,-5.9602,-5.9655,-5.9675,-5.9701,-5.964,-5.9872,-5.9894,-5.9915,-5.9988,-6.0017,-5.9667,-5.9666,-5.9665,-5.9664,0,-5.9366,-5.944,-5.9521,-5.9563,-5.9601,-5.9696,-5.9663,-5.9707,-5.967,-5.9657,-5.9764,-5.9771,-5.9822,-5.9851,-5.9815,-5.9978,-5.9946,-5.9881,-5.9778,-5.9957,-6.0024,-6.0052,-5.968,-5.9677,-5.9674,-5.9672,0,0,-5.9662,-5.9678,-5.9709,-5.9727,-5.9747,-5.9803,-5.9892,-5.9944,-5.9983,-6.0012,-6.0085,-6.0171,-6.0111,-6.0137,-6.0101,-6.0168,-6.0339,-6.0095,-6.0094,-6.0141,-6.0519,-6.0569,-6.0603,-6.0301,-6.0306,-6.031,-6.0518,0,-5.987,-6.0026,-5.9988,-6.0142,-6.021,-6.0131,-6.0208,-6.0228,-6.0218,-6.0273,-6.026,-6.0322,-6.0238,-6.0253,-6.0316,-6.0306,-6.0415,-6.0289,-6.0368,-6.0371,-6.0366,-6.0638,-6.0691,-6.0887,-6.0544,-6.0548,-6.0552,0,-6.0133,-6.0175,-6.0337,-6.0346,-6.0373,-6.0444,-6.0488,-6.0541,-6.0562,-6.0549,-6.0578,-6.053,-6.0616,-6.0512,-6.063,-6.0546,-6.0575,-6.0575,-6.0581,-6.0588,-6.0473,-6.0653,-6.0948,-6.0979,-6.0593,-6.059,-6.0587,0,-6.0334,-6.043,-6.0539,-6.0557,-6.057,-6.0622,-6.0629,-6.0644,-6.0678,-6.0715,-6.0736,-6.0783,-6.0809,-6.0846,-6.081,-6.0738,-6.0934,-6.0827,-6.0926,-6.0927,-6.0972,-6.097,-6.1278,-6.0989,-6.0989,-6.0988,-6.0988,0,-6.0571,-6.0673,-6.063,-6.0698,-6.0809,-6.0763,-6.0873,-6.0871,-6.0885,-6.0949,-6.0882,-6.0944,-6.0893,-6.0949,-6.0922,-6.1024,-6.1035,-6.1027,-6.1019,-6.1035,-6.1036,-6.1054,-6.104,-6.0996,-6.0994,-6.0993,-6.0991,0,-6.0815,-6.079,-6.0904,-6.0908,-6.0911,-6.0993,-6.0995,-6.1056,-6.1041,-6.1123,-6.1139,-6.1115,-6.1178,-6.1146,-6.121,-6.1192,-6.1324,-6.1297,-6.1319,-6.1312,-6.1413,-6.1404,-6.1744,-6.1786,-6.147,-6.1473,-6.1475,0,-6.0969,-6.1046,-6.1058,-6.1097,-6.111,-6.1173,-6.1207,-6.1164,-6.1202,-6.123,-6.1288,-6.1345,-6.1389,-6.1493,-6.148,-6.1529,-6.1503,-6.1618,-6.1509,-6.1522,-6.1505,-6.1502,-6.1509,-6.1641,-6.1644,-6.1647,-6.165,0,-6.1244,-6.1228,-6.1281,-6.133,-6.1373,-6.1409,-6.1439,-6.1474,-6.1431,-6.1477,-6.1541,-6.1575,-6.1642,-6.1699,-6.1742,-6.1747,-6.1692,-6.1684,-6.1709,-6.1727,-6.1736,-6.1733,-6.1379,-6.1677,-6.1674,-6.1672,-6.1671,-6.1669,-6.1448,-6.1512,-6.1531,-6.1592,-6.161,-6.164,-6.1698,-6.1691,-6.1744,-6.1796,-6.1766,-6.1842,-6.1858,-6.1909,-6.1922,-6.1979,-6.1933,-6.197,-6.1979,-6.199,-6.2004,-6.1727,-6.1986,-6.1986,-6.1985,-6.1984,-6.1984,0,-6.172,-6.1728,-6.1785,-6.183,-6.1878,-6.1822,-6.1852,-6.1895,-6.1963,-6.1984,-6.2029,-6.2102,-6.2158,-6.2149,-6.2199,-6.2247,-6.2222,-6.2261,-6.2258,-6.226,-6.2042,-6.2015,-6.228,-6.228,-6.228,-6.228,-6.228,-6.228,-6.1868,-6.1975,-6.1961,-6.2075,-6.2082,-6.2157,-6.2179,-6.2205,-6.2222,-6.2308,-6.2354,-6.2348,-6.2357,-6.2407,-6.2455,-6.245,-6.2472,-6.2521,-6.2508,-6.2305,-6.2275,-6.2247,-6.2222,-6.2526,-6.2526,-6.2721,-6.2723,-6.2724]}]]